Regional Weather Roundup
Issued by NWS

Current Version | Previous Version | Graphics & Text | Print | Product List | Glossary On
Versions: 1 2 3 4 5 6 7 8 9 10 11 12 13 14 15 16 17 18 19 20 21 22 23 24 25 26 27 28 29 30 31 32 33 34 35 36 37 38 39 40 41 42 43 44 45 46 47 48 49 50
000
ASUS43 KIND 130610
RWRIN

WEATHER ROUNDUP FOR INDIANA
NATIONAL WEATHER SERVICE INDIANAPOLIS IN
200 AM EDT MON JUL 13 2020

NOTE: "FAIR" INDICATES FEW OR NO CLOUDS BELOW 12,000 FEET WITH NO
SIGNIFICANT WEATHER AND/OR OBSTRUCTIONS TO VISIBILITY.

* - STATION DOES NOT REPORT WEATHER SUCH AS PRECIPITATION OR FOG.

+ - STATION NOT QUALITY CONTROLLED BY THE NATIONAL WEATHER SERVICE.
    USE DATA WITH CAUTION...ESPECIALLY DEWPOINT AND RELATIVE
    HUMIDITY OBSERVATIONS.

INZ001>003-010>013-019-020-130700-
NORTHWEST INDIANA

CITY           SKY/WX    TMP DP  RH WIND       PRES   REMARKS
GARY /AIRPORT/ CLEAR     71  61  71 N7        29.95S
KNOX *+        CLEAR     57  55  94 CALM      29.94S
LA PORTE +     CLEAR     60  59  98 CALM      29.95S
6HR MIN TEMP:  59; 6HR MAX TEMP:  70;

MICHIGAN CITY+ CLEAR     66  64  94 N7        29.95R
MONTICELLO +   CLEAR     59  58  96 CALM      29.94S
6HR MIN TEMP:  59; 6HR MAX TEMP:  75;

RENSSELAER +   CLEAR     59  59 100 CALM      29.95S
VALPARAISO     CLEAR     65  58  78 CALM      29.95S
6HR MIN TEMP:  64; 6HR MAX TEMP:  71;


$$

LMZ046-743>745-130700-
SOUTHERN LAKE MICHIGAN

STATION/POSITION TIME  TEMP    WIND        PRES    WAVE
                       AIR SEA DIR/SP/G            HT
                 (UTC) (F)     (DEG/KT/KT) (MB)    (FT)

$$

INZ004-005-014>016-021>024-130700-
NORTH CENTRAL INDIANA

CITY           SKY/WX    TMP DP  RH WIND       PRES   REMARKS
GOSHEN         PTCLDY    63  60  90 NW6       29.93R
6HR MIN TEMP:  63; 6HR MAX TEMP:  74;

LOGANSPORT +   CLEAR     61  61 100 NW3       29.94S
PERU/GRISSOM   CLEAR     63  63 100 NW7       29.92S
6HR MIN TEMP:  63; 6HR MAX TEMP:  77;

PLYMOUTH *+    CLEAR     61  61 100 NW5       29.93S
ROCHESTER +    CLEAR     63  59  88 NW3       29.93S
SOUTH BEND     CLEAR     63  60  90 N6        29.95S
6HR MIN TEMP:  63; 6HR MAX TEMP:  73;

WARSAW +       CLEAR     61  59  94 CALM      29.93S

$$

INZ006>009-017-018-025>027-130700-
NORTHEAST INDIANA

CITY           SKY/WX    TMP DP  RH WIND       PRES   REMARKS
ANGOLA *+      CLEAR     63  61  94 CALM      29.92S
AUBURN +       CLEAR     63  61  94 NW3       29.91S
FORT WAYNE     PTCLDY    62  59  90 W3        29.91S
6HR MIN TEMP:  62; 6HR MAX TEMP:  79;

HUNTINGTON +     N/A     62  60  94 CALM      29.92S
6HR MIN TEMP:  62; 6HR MAX TEMP:  77;

KENDALLVILLE + FAIR      61  57  87 CALM      29.93R

$$

INZ028-029-035-036-043>045-051>053-130700-
WEST CENTRAL INDIANA

CITY           SKY/WX    TMP DP  RH WIND       PRES   REMARKS
CRAWFORDSVL +  CLEAR     61  57  87 N3        29.94S
6HR MIN TEMP:  61; 6HR MAX TEMP:  75;

GREENCASTLE +  FAIR      64  60  86 N3        29.94S
LAFAYETTE      CLEAR     62  60  93 W5        29.94S
6HR MIN TEMP:  61; 6HR MAX TEMP:  79;

TERRE HAUTE    CLEAR     67  62  84 N5        29.94R
6HR MIN TEMP:  67; 6HR MAX TEMP:  81;


$$

INZ030>032-037>040-046>048-054>057-064-065-130700-
CENTRAL INDIANA

CITY           SKY/WX    TMP DP  RH WIND       PRES   REMARKS
ANDERSON +     CLEAR     63  60  90 CALM      29.93S
6HR MIN TEMP:  63; 6HR MAX TEMP:  77;

FISHERS *+     CLEAR     63  63 100 NW3       29.93S
FRANKFORT +    CLOUDY    64  59  85 N5        29.96S
6HR MIN TEMP:  64; 6HR MAX TEMP:  79;

INDIANAPOLIS   CLEAR     66  58  75 N8        29.92F
6HR MIN TEMP:  66; 6HR MAX TEMP:  81;

-EAGLE CREEK   CLEAR     66  58  75 N6        29.92S
6HR MIN TEMP:  66; 6HR MAX TEMP:  81;

KOKOMO +       CLEAR     61  60  97 W6        29.94S
6HR MIN TEMP:  61; 6HR MAX TEMP:  77;

MARION +       CLEAR     59  59 100 CALM      29.93S
MT COMFORT *+  CLEAR     63  63 100 N5        29.93S
SHELBYVILLE    CLEAR     69  60  73 N6        29.91S
6HR MIN TEMP:  69; 6HR MAX TEMP:  78;

ZIONSVILLE +   CLEAR     60  60 100 NW5       29.94S
6HR MIN TEMP:  59; 6HR MAX TEMP:  75;


$$

INZ033-034-041-042-049-050-058-059-130700-
EAST CENTRAL INDIANA

CITY           SKY/WX    TMP DP  RH WIND       PRES   REMARKS
MUNCIE         CLEAR     65  59  81 NW5       29.92S
6HR MIN TEMP:  65; 6HR MAX TEMP:  79;

PORTLAND +     CLOUDY    64  57  77 CALM      29.91S
RICHMOND +     FAIR      63  63 100 NW5       29.92F

$$

INZ060-061-067>069-081>083-085>088-130700-
SOUTHWEST INDIANA

CITY           SKY/WX    TMP DP  RH WIND       PRES   REMARKS
EVANSVILLE     CLEAR     72  67  84 CALM      29.91R
6HR MIN TEMP:  71; 6HR MAX TEMP:  80;

HUNTINGBURG +  CLEAR     68  68 100 CALM      29.91R
6HR MIN TEMP:  68; 6HR MAX TEMP:  80;

WASHINGTON +   CLEAR     69  69 100 CALM      29.92R
6HR MIN TEMP:  69; 6HR MAX TEMP:  80;


$$

INZ062-063-066-070>080-084-089>092-130700-
SOUTH CENTRAL AND SOUTHEAST INDIANA

CITY           SKY/WX    TMP DP  RH WIND       PRES   REMARKS
BATESVILLE +   PTCLDY    63  63 100 CALM      29.92S
BLOOMINGTON    CLEAR     68  61  78 N7        29.93R
6HR MIN TEMP:  68; 6HR MAX TEMP:  80;

FRENCH LICK *+ FAIR      68  64  88 CALM      29.92S
MADISON *+     CLEAR     64  64 100 CALM      29.92S
SEYMOUR +      CLEAR     72  66  83 N5        29.91R

$$




USA.gov is the U.S. government's official web portal to all federal, state and local government web resources and services.